Location: Nemiskam
(49.4820°N, 111.2775°W)
Time: 10:23:53
(UTC+00:00)

Envisat - Pass Details

Date: 30 November 2022
Orbit: 763 x 765 km, 98.2° (Epoch: 28 January)

Event Time Altitude Azimuth Distance (km) Brightness Sun altitude
Rises 12:51:17 0° 6° (N) 3,247 6.2 -19.9°
Reaches altitude 10° 12:53:48 10° 357° (N) 2,316 5.3 -19.5°
Enters shadow 12:57:08 28° 320° (NW) 1,416 3.9 -19.0°
